EW1732 Weather Reports


Display with metric or nautical units.
time (UTC)temp
F
wind
direction
speed
MPH
gust
MPH
rain 1hr
in
rain 24hr
in
rain mn
in
humidity
%
barometer
mb
20260906224832 67 229 0.0 0.0 0.00 0.00 0.00 73 1015.9
20260906223808 68 229 0.0 0.0 0.00 0.00 0.00 70 1016.0
20260906222743 69 206 0.0 0.0 0.00 0.00 0.00 67 1016.0
20260906221732 70 236 0.0 2.0 0.00 0.00 0.00 66 1016.0
20260906220744 71 238 0.0 1.0 0.00 0.00 0.00 65 1015.8
20260906215733 72 214 0.0 3.0 0.00 0.00 0.00 62 1015.6
20260906214742 73 249 0.0 3.0 0.00 0.00 0.00 62 1015.5
20260906210343 70 110 0.0 0.0 0.00 0.00 0.00 78 1015.3
20260906205319 70 207 0.0 0.0 0.00 0.00 0.00 78 1015.2
20260906204340 69 148 0.0 0.0 0.00 0.00 0.00 80 1015.3
20260906203349 68 151 0.0 0.0 0.00 0.00 0.00 80 1015.3
20260906202344 67 94 0.0 0.0 0.00 0.00 0.00 79 1015.3
20260906195051 69 226 0.0 0.0 0.00 0.00 0.00 78 1015.3
20260906194035 70 82 0.0 3.0 0.00 0.00 0.00 75 1015.3
20260906193056 72 320 0.0 1.0 0.00 0.00 0.00 74 1015.0
20260906192049 71 70 0.0 1.0 0.00 0.00 0.00 75 1015.0
20260906191015 71 239 0.0 0.0 0.00 0.00 0.00 76 1014.9
20260906185957 70 249 0.0 1.0 0.00 0.00 0.00 78 1015.0
20260906185012 69 18 0.0 0.0 0.00 0.00 0.00 80 1015.1
20260906184000 69 227 0.0 0.0 0.00 0.00 0.00 79 1015.1
20260906181904 71 61 0.0 0.0 0.00 0.00 0.00 73 1015.2
20260906180905 73 356 0.0 0.0 0.00 0.00 0.00 69 1015.0
20260906175905 71 169 0.0 0.0 0.00 0.00 0.00 74 1015.0
20260906174915 71 148 0.0 0.0 0.00 0.00 0.00 73 1015.0
20260906173903 73 88 0.0 0.0 0.00 0.00 0.00 70 1015.2
20260906172833 73 314 0.0 0.0 0.00 0.00 0.00 73 1015.0
20260906170700 69 259 0.0 0.0 0.00 0.00 0.00 77 1015.4
20260906165713 70 215 0.0 0.0 0.00 0.00 0.00 75 1015.3
20260906164717 70 77 0.0 2.0 0.00 0.00 0.00 71 1015.3
20260906163647 71 65 0.0 2.0 0.00 0.00 0.00 72 1015.3
20260906162646 70 111 0.0 1.0 0.00 0.00 0.00 76 1015.4
20260906161632 69 82 0.0 3.0 0.00 0.00 0.00 75 1015.5
20260906160657 70 217 0.0 2.0 0.00 0.00 0.00 75 1015.4
20260906155642 70 226 0.0 0.0 0.00 0.00 0.00 78 1015.5
20260906154618 69 181 0.0 0.0 0.00 0.00 0.00 79 1015.6
20260906153608 68 172 0.0 1.0 0.00 0.00 0.00 78 1015.7
20260906152547 68 77 0.0 0.0 0.00 0.00 0.00 79 1015.7
20260906151533 68 72 0.0 3.0 0.00 0.00 0.00 78 1015.7
20260906150516 67 233 0.0 3.0 0.00 0.00 0.00 80 1015.7
20260906145507 66 75 0.0 0.0 0.00 0.00 0.00 82 1015.8
20260906144530 66 148 0.0 0.0 0.00 0.00 0.00 82 1015.8
20260906142316 65 136 0.0 1.0 0.00 0.00 0.00 82 1015.7
20260906141330 64 59 0.0 0.0 0.00 0.00 0.00 84 1015.6
20260906140304 64 61 0.0 0.0 0.00 0.00 0.00 85 1015.5
20260906135251 64 82 0.0 1.0 0.00 0.00 0.00 85 1015.6
20260906134222 64 63 0.0 1.0 0.00 0.00 0.00 85 1015.5
20260906132039 64 51 0.0 0.0 0.00 0.00 0.00 86 1015.4
20260906131101 64 91 0.0 1.0 0.00 0.00 0.00 88 1015.3
20260906130113 63 70 0.0 1.0 0.00 0.00 0.00 86 1015.3
20260906125045 63 72 0.0 0.0 0.00 0.00 0.00 87 1015.2
20260906122924 63 230 0.0 0.0 0.00 0.00 0.00 88 1015.1
20260906121944 63 230 0.0 0.0 0.00 0.00 0.00 88 1014.8
20260906115845 62 132 0.0 0.0 0.00 0.00 0.00 91 1014.9
20260906114817 61 210 0.0 0.0 0.00 0.00 0.00 92 1014.9
20260906113835 61 210 0.0 0.0 0.00 0.00 0.00 93 1014.8
20260906112927 60 210 0.0 0.0 0.00 0.00 0.00 93 1014.8
20260906111849 60 68 0.0 0.0 0.00 0.00 0.00 93 1014.8
20260906105748 60 68 0.0 0.0 0.00 0.00 0.00 92 1014.3
20260906104753 60 68 0.0 0.0 0.00 0.00 0.00 91 1013.9
20260906103748 61 68 0.0 0.0 0.00 0.00 0.00 91 1013.9
20260906101625 61 68 0.0 0.0 0.00 0.00 0.00 91 1013.8
20260906100601 61 68 0.0 0.0 0.00 0.00 0.00 91 1013.8
20260906095617 61 68 0.0 0.0 0.00 0.00 0.00 91 1013.7
20260906094543 61 68 0.0 0.0 0.00 0.00 0.00 91 1013.4
20260906093552 61 68 0.0 0.0 0.00 0.00 0.00 91 1013.4
20260906091431 61 68 0.0 0.0 0.00 0.00 0.00 90 1013.2
20260906090430 61 68 0.0 0.0 0.00 0.00 0.00 90 1013.2
20260906085425 61 68 0.0 0.0 0.00 0.00 0.00 90 1013.3
20260906084425 61 68 0.0 0.0 0.00 0.00 0.00 90 1013.3
20260906083404 62 68 0.0 0.0 0.00 0.00 0.00 90 1013.0
20260906082340 62 68 0.0 0.0 0.00 0.00 0.00 91 1012.9
20260906081327 62 68 0.0 0.0 0.00 0.00 0.00 91 1013.0
20260906080333 62 68 0.0 0.0 0.00 0.00 0.00 92 1013.0
20260906075312 63 68 0.0 0.0 0.00 0.00 0.00 93 1012.7
20260906074320 63 68 0.0 0.0 0.00 0.00 0.00 93 1012.8
20260906073336 63 68 0.0 0.0 0.00 0.00 0.00 93 1012.8
20260906072307 63 68 0.0 0.0 0.00 0.00 0.00 93 1012.7
20260906070145 63 68 0.0 0.0 0.00 0.00 0.00 93 1012.8
20260906065139 63 69 0.0 0.0 0.00 0.00 0.00 93 1012.9
20260906064119 64 68 0.0 0.0 0.00 0.00 0.00 93 1012.8
20260906063132 64 79 0.0 0.0 0.00 0.00 0.00 93 1012.9
20260906061024 64 144 0.0 0.0 0.00 0.00 0.00 95 1013.0
20260906055951 64 217 0.0 0.0 0.00 0.00 0.00 95 1013.0
20260906055008 63 218 0.0 0.0 0.00 0.00 0.00 95 1013.1
20260906054014 63 218 0.0 0.0 0.00 0.00 0.00 95 1013.1
20260906053020 63 218 0.0 0.0 0.00 0.00 0.00 95 1013.0
20260906051959 63 218 0.0 0.0 0.00 0.00 0.00 95 1013.0
20260906051023 63 218 0.0 0.0 0.00 0.00 0.00 95 1012.9
20260906050044 63 218 0.0 0.0 0.00 0.00 0.00 95 1012.9
20260906045033 63 218 0.0 0.0 0.00 0.00 0.00 95 1013.0
20260906044044 63 217 0.0 0.0 0.00 0.00 0.00 95 1013.0
20260906041845 62 218 0.0 0.0 0.00 0.00 0.00 95 1012.9
20260906040905 62 217 0.0 0.0 0.00 0.00 0.00 94 1012.9
20260906035845 62 218 0.0 0.0 0.00 0.00 0.00 94 1013.0
20260906034853 62 218 0.0 0.0 0.00 0.00 0.00 93 1012.9
20260906033914 62 218 0.0 0.0 0.00 0.00 0.00 93 1012.8
20260906032922 63 218 0.0 0.0 0.00 0.00 0.00 92 1012.6
20260906031932 63 217 0.0 0.0 0.00 0.00 0.00 92 1012.6
20260906025824 63 218 0.0 0.0 0.00 0.00 0.00 91 1012.5
20260906024754 63 218 0.0 0.0 0.00 0.00 0.00 91 1012.7
20260906023814 63 218 0.0 0.0 0.00 0.00 0.00 91 1012.6
20260906022835 63 218 0.0 0.0 0.00 0.00 0.00 90 1012.5
20260906021841 64 218 0.0 0.0 0.00 0.00 0.00 88 1012.4
20260906020811 64 218 0.0 0.0 0.00 0.00 0.00 88 1012.4
20260906015831 65 218 0.0 0.0 0.00 0.00 0.00 87 1012.3
20260906012453 66 218 0.0 0.0 0.00 0.00 0.00 83 1012.0
20260906011434 67 229 0.0 0.0 0.00 0.00 0.00 83 1012.0
20260906010420 67 241 0.0 1.0 0.00 0.00 0.00 82 1012.0
20260906004336 68 233 0.0 0.0 0.00 0.00 0.00 81 1011.7
20260906003357 68 207 0.0 0.0 0.00 0.00 0.00 79 1011.7
20260906002410 68 221 0.0 0.0 0.00 0.00 0.00 79 1011.7
20260906000249 69 229 0.0 0.0 0.00 0.00 0.00 78 1011.5
20260905235248 69 229 0.0 0.0 0.00 0.00 0.00 78 1011.3
20260905234311 69 229 0.0 0.0 0.00 0.00 0.00 78 1011.3
20260905233245 70 223 0.0 0.0 0.00 0.00 0.00 77 1011.2
20260905232259 71 223 0.0 0.0 0.00 0.00 0.00 76 1011.0
20260905231302 72 223 0.0 0.0 0.00 0.00 0.00 74 1011.0
20260905230321 72 223 0.0 0.0 0.00 0.00 0.00 73 1011.1